Regional Weather Roundup
Issued by NWS State College, PA

Home | Current Version | Previous Version | Graphics & Text | Print | Product List | Glossary On
Versions: 1 2 3 4 5 6 7 8 9 10 11 12 13 14 15 16 17 18 19 20 21 22 23 24 25 26 27 28 29 30 31 32 33 34 35 36 37 38 39 40 41 42 43 44 45 46 47 48 49 50
000
ASUS41 KCTP 282310
RWRCTP

REGIONAL WEATHER ROUNDUP
NATIONAL WEATHER SERVICE STATE COLLEGE PA
700 PM EDT THU APR 28 2016

Note: "fair" indicates few or no clouds below 12,000 feet with no
significant weather and/or obstructions to visibility.

* = STATION THAT DOES NOT REPORT PRECIPITATION /E.G. RAIN...SNOW...ETC/
    THUNDER OR FOG.

PAZ002>004-007>009-013>016-020>023-029>032-290000-
WESTERN PENNSYLVANIA

CITY           SKY/WX    TMP DP  RH WIND       PRES   REMARKS
ERIE           CLOUDY    45  41  86 NE13      29.98R
MEADVILLE      LGT RAIN  43  42  97 E7        29.94R
FRANKLIN*      CLOUDY    43  39  87 E9        29.96R
NEW CASTLE     CLOUDY    45  42  89 NE9       29.94R
BEAVER COUNTY  CLOUDY    45  45 100 CALM      29.91  FOG
BUTLER*        CLOUDY    45  43  93 E8        29.94R
PITTSBURGH INT DRZL/FOG  50  46  86 N8        29.90R VSB 1
PITTSBURGH     FOG       50  49  96 N6        29.88S VSB 1/4
INDIANA*       CLOUDY    48  45  87 E8G14     29.94F
LATROBE        CLOUDY    55  54  94 SE9       29.89S
WASHINGTON CO* CLOUDY    55  52  88 N7        29.89R
$$

PAZ004>006-010>012-017>019-024>028-033>037-041-042-045-046-049>053-290000-
CENTRAL PENNSYLVANIA

CITY           SKY/WX    TMP DP  RH WIND       PRES   REMARKS
BRADFORD       RAIN      40  38  93 E9        29.94F FOG
DUBOIS         CLOUDY    40  38  93 E9        29.93S
CLEARFIELD     LGT RAIN  42  39  89 NE7       29.98R
JOHNSTOWN      CLOUDY    43  40  89 SE5       29.92S FOG
ALTOONA        CLOUDY    42  40  92 E5        29.98R FOG
STATE COLLEGE  RAIN      43  41  93 NE6       29.99F
WILLIAMSPORT   LGT RAIN  47  41  80 CALM      30.01F
SELINSGROVE    LGT RAIN  46  42  86 CALM      30.03S
FT INDIANTOWN  LGT RAIN  45  45 100 E6        30.02S
CAPITAL CITY   CLOUDY    47  43  86 E8        30.02S
HARRISBURG     DRIZZLE   46  43  89 E9        30.01S FOG
YORK           CLOUDY    45  42  89 E9        30.01R
$$

PAZ038>040-043-044-047-048-054-055-060>062-067>071-290000-
EASTERN PENNSYLVANIA

CITY           SKY/WX    TMP DP  RH WIND       PRES   REMARKS
SCRANTON       CLOUDY    46  42  86 S5        30.00F
MOUNT POCONO   CLOUDY    44  37  76 W5        29.99S
ALLENTOWN      LGT RAIN  46  42  86 SW3       30.03F
QUAKERTOWN*    CLOUDY    45  43  93 S3        30.05R
READING        CLOUDY    45  43  93 CALM      30.03S
LANCASTER      CLOUDY    43  42  97 E9        30.02S FOG
COATESVILLE    MIX PCPN  43  43 100 E3        30.04S
POTTSTOWN      LGT RAIN  42  42 100 CALM      30.06S FOG
BLUE BELL      CLOUDY    41  39  93 CALM      30.04S
DOYLESTOWN     LGT RAIN  41  40  96 VRB3      30.04S
WILLOW GROVE   NOT AVBL
NORTH PHILA    RAIN      44  42  93 NE8       30.07R FOG
PHILADELPHIA   CLOUDY    47  37  68 E7        30.05R
$$




USA.gov is the U.S. government's official web portal to all federal, state and local government web resources and services.